THORAD DELTA 1 DEB, 8164

Orbit data source: Space-Track

THORAD DELTA 1 DEB, 8164 is space debris in SSO originally from a launch on Fri, 15 Nov 1974 UTC launched from the Air Force Western Test Range (AFWTR). Debris objects in space refer to the collection of defunct objects orbiting the Earth. Examples of debris include non-operational satellites, rocket bodies, and fragments generated from explosions, collisions, or faulty payload assembly.

Loading next visibility...
Identifier
8164, 1974-089AE
Orbit
SSO
Country
Flag of USUS
Related business
Manufacturer
Unknown
Mission
Spacecraft
Bus & Motor
Unknown
Mass
Unknown
Launch date (UTC)
1974-11-15 (51 years ago)
Launch vehicle
Unknown
Launch site
Air Force Western Test Range (AFWTR)
Object type
Payload
Rocket body
Debris
Shape & HBR
Unknown shape, 0.3 m
Radar Cross Section
Medium (>0.1 m² and <1 m²)

Expand to show TLE details & history
Last TLE update: 13 hours ago

TLE from 13 hours ago
0 THORAD DELTA 1 DEB
1  8164U 74089AE  26131.11020975 -.00000029  00000-0  99925-4 0  9995
2  8164 101.6319 252.2846 0121012  61.5793 110.6573 12.28973201310056
Epoch: 2026-05-11T02:38Z
TLE epoch observation values (Epoch: 2026-05-11T02:38:42.122Z)
Latitude
6.27091°
Longitude
164.99534°
Altitude
1,590.53 km
Speed
7.059 km/s
True Right ascension
04h 54m 17s
True Declination
6° 14' 15"
Sunlit
Object was in daylight at epoch
Visualization orbit readout
Latitude
Unknown
Longitude
Unknown
Altitude
Unknown
Speed
Unknown
Apparent Right ascension
Unknown
Apparent Declination
Unknown
Sunlit
N/A
Visualization observer readout
Local Sidereal Time
23:56:46
Azimuth
Unknown
Elevation
Unknown
Doppler factor
Unknown
Orbital elements
Apogee altitude
1,647.219 km
Perigee altitude
1,455.308 km
Semi-major axis
7,929.4 km
Eccentricity
0.0121
Inclination
101.6319°
RAAN
252.2846°
Arg. of periapsis
61.5793°
True anomaly
111.94784°
Mean anomaly
110.6573°
Eccentric anomaly
111.30327°
Mean motion
3.07385 °/min
Orbital period
117.12 mins
BSTAR
0.000099925
Loading maneuver chart data...
Computing Atmospheric mass density...

Documentation

Showing up to 5 results
|